GW0203 Weather Reports


Display with metric or nautical units.
time (UTC)temp
F
wind
direction
speed
MPH
gust
MPH
rain 1hr
in
rain 24hr
in
rain mn
in
humidity
%
barometer
mb
20260503012152 49 90 0.0 3.0 0.00 0.00 0.00 98 1009.9
20260503010647 49 138 3.0 3.0 0.00 0.00 0.00 97 1009.9
20260503005145 49 77 2.0 4.0 0.00 0.00 0.00 97 1009.6
20260503003642 49 123 1.0 3.0 0.00 0.00 0.00 97 1009.7
20260503002138 49 35 0.0 3.0 0.00 0.00 0.00 96 1009.8
20260503000634 49 77 2.0 3.0 0.00 0.00 0.00 96 1009.7
20260502235132 49 110 2.0 3.0 0.00 0.00 0.00 95 1009.7
20260502233632 50 106 0.0 3.0 0.00 0.00 0.00 95 1009.8
20260502232129 50 45 2.0 3.0 0.00 0.00 0.00 95 1009.8
20260502230627 50 99 0.0 2.0 0.00 0.00 0.00 94 1009.8
20260502225124 50 154 2.0 3.0 0.00 0.00 0.00 94 1009.9
20260502223621 50 264 1.0 3.0 0.00 0.00 0.00 93 1009.7
20260502222118 50 325 0.0 5.0 0.00 0.00 0.00 93 1009.9
20260502220614 50 0 1.0 2.0 0.00 0.00 0.00 92 1009.7
20260502215110 50 68 0.0 3.0 0.00 0.00 0.00 92 1009.6
20260502213607 51 16 0.0 3.0 0.00 0.00 0.00 91 1009.3
20260502212107 50 66 1.0 3.0 0.00 0.00 0.00 90 1009.5
20260502210602 51 60 0.0 2.0 0.00 0.00 0.00 91 1009.7
20260502205059 50 216 2.0 6.0 0.00 0.00 0.00 90 1009.9
20260502203556 50 203 3.0 4.0 0.00 0.00 0.00 90 1009.8
20260502202053 50 250 3.0 6.0 0.00 0.00 0.00 90 1010.2
20260502200553 51 162 1.0 4.0 0.00 0.00 0.00 90 1010.2
20260502195051 50 184 2.0 7.0 0.00 0.00 0.00 91 1010.4
20260502193547 51 66 2.0 8.0 0.00 0.00 0.00 89 1010.4
20260502192043 52 225 3.0 4.0 0.00 0.00 0.00 89 1010.8
20260502190541 52 206 5.0 7.0 0.00 0.00 0.00 86 1010.5
20260502185036 52 178 3.0 6.0 0.00 0.00 0.00 85 1010.7
20260502183536 53 118 3.0 3.0 0.00 0.00 0.00 83 1010.8
20260502182035 53 147 2.0 5.0 0.00 0.00 0.00 80 1010.9
20260502180534 52 158 2.0 5.0 0.00 0.00 0.00 79 1011.1
20260502163519 51 223 8.0 13.0 0.00 0.00 0.00 83 1011.6
20260502162015 55 90 0.0 8.0 0.00 0.00 0.00 81 1011.4
20260502160512 53 197 2.0 6.0 0.00 0.00 0.00 82 1011.6
20260502152004 53 209 1.0 6.0 0.00 0.00 0.00 82 1012.1
20260502150501 58 192 1.0 3.0 0.00 0.00 0.00 75 1011.4
20260502130433 52 262 4.0 9.0 0.00 0.00 0.00 83 1012.3
20260502123428 51 157 0.0 7.0 0.00 0.00 0.00 86 1012.5
20260502121925 50 74 0.0 7.0 0.00 0.00 0.00 86 1012.1
20260502120421 50 245 4.0 10.0 0.00 0.00 0.00 86 1012.2
20260502114917 50 197 3.0 7.0 0.00 0.00 0.00 88 1012.2
20260502113415 50 237 5.0 5.0 0.00 0.00 0.00 86 1011.9
20260502111914 49 210 4.0 6.0 0.00 0.00 0.00 85 1011.9
20260502110411 49 209 3.0 5.0 0.00 0.00 0.00 85 1011.8
20260502104909 49 180 0.0 4.0 0.00 0.00 0.00 86 1011.8
20260502103407 49 203 1.0 8.0 0.00 0.00 0.00 86 1011.5
20260502101903 48 225 0.0 5.0 0.00 0.00 0.00 85 1011.5
20260502100359 48 319 2.0 5.0 0.00 0.00 0.00 84 1011.4
20260502090349 48 274 3.0 9.0 0.00 0.00 0.00 79 1011.4
20260502070338 49 147 0.0 3.0 0.00 0.00 0.00 75 1011.1
20260502064838 50 222 3.0 4.0 0.00 0.00 0.00 74 1011.2
20260502063336 50 180 1.0 7.0 0.00 0.00 0.00 73 1011.5
20260502061836 50 235 4.0 7.0 0.00 0.00 0.00 76 1011.5
20260502060335 50 209 4.0 4.0 0.00 0.00 0.00 77 1011.6
20260502054831 49 199 0.0 6.0 0.00 0.00 0.00 77 1011.5
20260502053328 50 158 3.0 4.0 0.00 0.00 0.00 75 1011.7
20260502051827 50 159 2.0 5.0 0.00 0.00 0.00 73 1011.8
20260502050323 50 198 2.0 5.0 0.00 0.00 0.00 72 1011.6
20260502044820 50 213 2.0 3.0 0.00 0.00 0.00 73 1011.7
20260502043317 50 180 0.0 5.0 0.00 0.00 0.00 74 1011.9
20260502041817 50 180 1.0 4.0 0.00 0.00 0.00 74 1011.7
20260502040314 50 238 3.0 5.0 0.00 0.00 0.00 74 1011.6
20260502034810 50 199 2.0 2.0 0.00 0.00 0.00 74 1011.8
20260502033309 50 225 2.0 4.0 0.00 0.00 0.00 73 1011.8
20260502031806 51 195 3.0 4.0 0.00 0.00 0.00 72 1011.7
20260502030306 51 259 3.0 5.0 0.00 0.00 0.00 71 1011.5
20260502024804 51 227 3.0 8.0 0.00 0.00 0.00 71 1011.6
20260502023303 51 279 3.0 5.0 0.00 0.00 0.00 70 1011.5
20260502021759 52 265 4.0 7.0 0.00 0.00 0.00 70 1011.5
20260502020257 52 214 4.0 10.0 0.00 0.00 0.00 69 1011.5
20260502014754 53 270 4.0 7.0 0.00 0.00 0.00 65 1011.3